Aérodrome :
LOGIN :

S'inscrire | Disclaimer

   EN    FR    IT 

 










Légende :    VFR   VFR Marginal   IFR   IFR Intensif   IFR Très Intensif
Visi : 
Plafond : 
>= 8 km
>= 3000ft
5 à 8 km
1000 à 3000 ft
1500m à 5 km
500 à 1000 ft
800 à 1500m
200 à 500 ft
< 800m
< 200 ft
Symboles :   Orages  Brouillard  Fortes neiges  Fortes précipitations  Vent > 20 kt
SIGMETs :   Divers  Orages  Givrage  Turbulence  Onde Orograph.  Cendres Volcan.







- Altitude de l'aérodrome : 296 ft
- Code IATA : GKE


ETNG - Geilenkirchen

DERNIER METAR :
  • 231950Z 22014G30KT 9999 -DZ SCT010 BKN012 10/07 Q1019 NOSIG

METARs EXPIRÉS :
  • 231850Z 22013G26KT 9999 BKN015 10/07 Q1019 TEMPO BKN012
  • 231750Z 21012G23KT 9999 BKN020 10/06 Q1019 NOSIG

TAF TAF ETNG
Valide du 23 à 18h jusqu'au 24 à 09h UTC


231700Z 2318/2409 21015G25KT 9999 SCT015 BKN020
TEMPO 2318/2323 21018G28KT -RA SCT007 BKN012
BECMG 2321/2323 21012G22KT
PROB40
TEMPO 2323/2406 BKN007
BECMG 2404/2406 21015G25KT
BECMG 2407/2409 21018G28KT
Pas de NOTAMs connus pour ce terrain.



MET'MAP, la Météo Aéronautique d'un coup d'oeil ! - Copyright ORBIFLY Décembre 2007 - Disclaimer

ORBIFLY MET'MAP TEAM :

Programmation & Développement : Alexandra Zaïnal
Conception & Développement : Baudouin d'Aumeries
Co-Programmation & Développement : Marc-Olivier Méhu
Soutien technique & logistique : Manuel Goepfert

Contact : metmap@orbifly.com




SOURCES & CREDITS :

   NOAA